time_stamp(utc),avg(mph),gust(mph),direction(deg),12m_air_temp(f),sonic_u(cm/s),sonic_v(cm/s),sonic_w(cm/s),pressure,2m_air_temp(f),pyranometer(W/m^2)
"2018-03-03 00:02:58+00",41.7,51.7,,33.4,2119,1753,-1757,1000.87,33.5,0
"2018-03-03 00:07:58+00",38.8,43.8,,33.6,1923,3559,-2745,1000.78,33.5,0
"2018-03-03 00:12:58+00",40.6,44.6,,33.6,520,649,74,1000.9,33.4,0
"2018-03-03 00:17:58+00",37.7,41.7,,33.5,1577,1037,-859,1000.93,33.4,0
"2018-03-03 00:22:58+00",38.7,44.7,,33.5,830,-398,946,1001.15,33.5,0
"2018-03-03 00:27:58+00",33.6,40.6,,33.7,-321,2434,-1026,1001.36,33.7,0
"2018-03-03 00:32:58+00",35.4,42.4,,33.7,-304,2237,-934,1001.34,33.8,0
"2018-03-03 00:37:58+00",40.5,46.5,,33.9,-680,1450,17,1001.29,33.8,0
"2018-03-03 00:42:58+00",39.8,43.8,,33.9,1566,-1524,1607,1001.57,33.7,0
"2018-03-03 01:27:58+00",38.0,45.0,,33.5,20000,0,-1,1002.59,33.7,-0.1
"2018-03-03 01:32:58+00",36.5,42.5,,33.7,3055,-291,-590,1002.82,33.9,0
"2018-03-03 01:37:58+00",40.3,46.3,,33.9,2600,313,-928,1002.76,34.1,0
"2018-03-03 01:42:58+00",39.7,47.7,,34.3,1274,2342,-1673,1002.87,34.3,0
"2018-03-03 01:47:58+00",38.5,44.5,,34.2,327,2476,-1283,1003.07,34.2,0
"2018-03-03 01:52:58+00",41.0,47.0,,34.3,-677,2802,-1148,1003.64,34.2,0
"2018-03-03 01:57:58+00",40.4,44.4,,34.7,-1704,2844,-690,1003.94,34.5,0
"2018-03-03 02:02:58+00",39.6,43.6,,34.7,-2482,4012,-1672,1004.04,34.6,0
"2018-03-03 02:07:58+00",39.3,42.3,,34.5,-1897,3371,-1136,1004.1,34.4,0
"2018-03-03 02:12:58+00",40.9,45.9,,34.5,-1553,2902,-1042,1004.28,34.4,0
"2018-03-03 02:17:58+00",37.5,43.5,,34.6,-677,1598,-181,1004.43,34.5,0
"2018-03-03 02:22:58+00",36.9,41.9,,34.8,-875,1589,-18,1004.79,34.6,0
"2018-03-03 02:27:58+00",37.1,42.1,,34.4,-676,941,323,1004.81,34.5,0
"2018-03-03 02:32:58+00",36.7,40.7,,34.7,-1208,2003,-291,1004.66,34.6,0
"2018-03-03 02:37:58+00",36.2,41.2,,34.8,-974,1227,138,1004.72,34.8,0
"2018-03-03 02:42:58+00",38.0,42.0,,34.9,-864,1452,78,1005.02,34.9,0
"2018-03-03 02:47:58+00",38.0,43.0,,35.2,-943,1422,131,1004.96,35.1,0
"2018-03-03 02:52:58+00",40.8,44.8,,35.2,-920,1570,82,1005,35.2,0
"2018-03-03 02:57:58+00",39.3,46.3,,35.5,-940,1460,99,1004.9,35.5,0
"2018-03-03 03:02:58+00",40.0,44.0,,35.5,-927,1511,99,1004.96,35.5,0
"2018-03-03 03:07:58+00",33.7,36.7,,35.6,-849,1269,114,1005.04,35.5,0
"2018-03-03 03:12:58+00",39.0,47.0,,35.6,-1033,1406,131,1004.97,35.6,0
"2018-03-03 03:17:58+00",37.9,44.9,,35.6,-981,1378,118,1005.17,35.6,0
"2018-03-03 03:22:58+00",37.8,42.8,,35.7,-974,1373,113,1005.23,35.7,0
"2018-03-03 03:27:58+00",40.4,44.4,,35.6,-1126,1397,130,1004.98,35.6,0
"2018-03-03 03:32:58+00",37.6,41.6,,35.6,-843,1430,121,1005.38,35.6,0
"2018-03-03 03:37:58+00",34.1,41.1,,35.7,-864,1260,123,1005.45,35.7,0
"2018-03-03 03:42:58+00",36.9,41.9,,35.6,-855,1402,91,1005.7,35.6,0
"2018-03-03 03:47:58+00",40.8,50.8,,35.6,-869,1592,76,1005.76,35.5,0
"2018-03-03 03:52:58+00",34.7,40.7,,35.5,-783,1324,119,1005.93,35.5,0
"2018-03-03 03:57:58+00",39.2,44.2,,35.5,-821,1532,79,1005.9,35.4,0
"2018-03-03 04:02:58+00",35.4,40.4,,35.6,-704,1404,94,1006.31,35.5,0
"2018-03-03 04:07:58+00",37.5,44.5,,35.6,-744,1494,117,1006.34,35.4,0
"2018-03-03 04:12:58+00",37.6,41.6,,35.5,-746,1486,72,1006.41,35.4,0
"2018-03-03 04:17:58+00",38.9,50.9,,35.5,-717,1577,86,1006.61,35.3,0
"2018-03-03 04:22:58+00",32.7,35.7,,35.5,-691,1296,103,1006.61,35.3,0
"2018-03-03 04:27:58+00",32.8,38.8,,35.5,-683,1292,100,1006.75,35.3,0
"2018-03-03 04:32:58+00",36.1,41.1,,35.5,-654,1461,73,1006.9,35.2,0
"2018-03-03 04:37:58+00",33.4,37.4,,35.5,-677,1321,80,1007.01,35.2,0
"2018-03-03 04:42:58+00",34.8,38.8,,35.5,-552,1436,84,1007.15,35.2,0
"2018-03-03 04:47:58+00",36.6,39.6,,35.5,-727,1462,84,1007.19,35.2,0
"2018-03-03 04:52:58+00",30.8,36.8,,35.4,-560,1237,94,1007.29,35.1,0
"2018-03-03 04:57:58+00",32.0,37.0,,35.2,-647,1264,74,1007.29,34.9,0
"2018-03-03 05:02:58+00",36.6,41.6,,35.2,-613,1494,80,1007.32,34.8,0
"2018-03-03 05:07:58+00",35.8,42.8,,35.2,-752,1410,83,1007.36,34.8,0
"2018-03-03 05:12:58+00",37.1,45.1,,35,-707,1492,85,1007.48,34.7,0
"2018-03-03 05:17:58+00",32.5,39.5,,34.9,-612,1299,52,1007.42,34.6,0
"2018-03-03 05:22:58+00",37.0,44.0,,35,-709,1503,108,1007.53,34.7,0
"2018-03-03 05:27:58+00",36.4,42.4,,34.9,-723,1437,80,1007.53,34.6,0
"2018-03-03 05:32:58+00",35.5,38.5,,34.9,-720,1403,86,1007.54,34.6,0
"2018-03-03 05:37:58+00",31.4,40.4,,34.9,-670,1225,87,1007.72,34.6,0
"2018-03-03 05:42:58+00",31.7,34.7,,35,-709,1219,89,1007.73,34.6,0
"2018-03-03 05:47:58+00",29.7,35.7,,35,-618,1165,78,1007.79,34.6,0
"2018-03-03 05:52:58+00",32.0,36.0,,35,-629,1270,75,1007.92,34.6,0
"2018-03-03 05:57:58+00",32.0,36.0,,34.9,-521,1321,58,1007.82,34.4,0
"2018-03-03 06:02:58+00",29.4,33.4,,35,-575,1165,71,1007.93,34.5,0
"2018-03-03 06:07:58+00",35.8,40.8,,35.1,-598,1486,88,1007.98,34.5,0
"2018-03-03 06:12:58+00",33.3,38.3,,34.9,-618,1342,61,1008.1,34.5,0
"2018-03-03 06:17:58+00",34.3,38.3,,34.9,-658,1383,60,1007.99,34.5,0
"2018-03-03 06:22:58+00",30.5,36.5,,34.7,-655,1186,57,1007.79,34.4,0
"2018-03-03 06:27:58+00",34.3,41.3,,34.8,-571,1415,68,1007.83,34.3,0
"2018-03-03 06:32:58+00",29.8,35.8,,34.8,-697,1136,97,1007.87,34.3,0
"2018-03-03 06:37:58+00",31.9,35.9,,35.2,-659,1270,90,1007.99,34.6,0
"2018-03-03 06:42:58+00",31.8,33.8,,35.3,-660,1245,74,1007.98,34.7,0
"2018-03-03 06:47:58+00",32.4,39.4,,35.4,-664,1274,75,1007.94,34.9,0
"2018-03-03 06:52:58+00",32.0,38.0,,35.5,-651,1268,82,1007.89,35,0
"2018-03-03 06:57:58+00",31.1,35.1,,35.5,-553,1255,78,1007.87,35,0
"2018-03-03 07:02:58+00",32.2,39.2,,35.6,-621,1291,61,1008.05,35.2,0
"2018-03-03 07:07:58+00",32.9,37.9,,35.6,-647,1312,72,1007.93,35.1,0
"2018-03-03 07:12:58+00",32.0,38.0,,35.6,-597,1289,68,1008.08,35.2,0
"2018-03-03 07:17:58+00",31.0,36.0,,35.6,-722,1178,81,1008.04,35.2,0
"2018-03-03 07:22:58+00",28.9,35.9,,35.6,-641,1121,77,1008.21,35.2,0
"2018-03-03 07:27:58+00",29.1,33.1,,35.4,-547,1174,89,1008.11,35.1,0
"2018-03-03 07:32:58+00",29.3,35.3,,35.4,-723,1100,89,1008.05,35,0
"2018-03-03 07:37:58+00",26.1,31.1,,35.4,-579,1011,90,1008.13,35,0
"2018-03-03 07:42:58+00",26.2,30.2,,35.4,-468,1065,49,1008.19,34.9,0
"2018-03-03 07:47:58+00",24.9,27.9,,35.5,-458,995,54,1008.21,35,0
"2018-03-03 07:52:58+00",26.2,30.2,,35.6,-484,1058,67,1008.23,35.1,0
"2018-03-03 07:57:58+00",26.9,31.9,,35.6,-519,1075,66,1008.19,35.1,0
"2018-03-03 08:02:58+00",27.7,31.7,,35.6,-494,1112,73,1008.24,35.1,0
"2018-03-03 08:07:58+00",29.5,35.5,,35.7,-605,1165,47,1008.18,35.2,0
"2018-03-03 08:12:58+00",28.6,34.6,,35.6,-600,1125,86,1008.17,35.1,0
"2018-03-03 08:17:58+00",28.1,32.1,,35.6,-502,1139,73,1008.25,35.2,0
"2018-03-03 08:22:58+00",28.0,31.0,,35.7,-486,1138,64,1008.34,35.2,0
"2018-03-03 08:27:58+00",27.0,31.0,,35.7,-571,1062,83,1008.27,35.2,0
"2018-03-03 08:32:58+00",27.8,33.8,,35.8,-520,1125,66,1008.33,35.3,0
"2018-03-03 08:37:58+00",30.9,35.9,,35.9,-759,1156,72,1008.14,35.3,0
"2018-03-03 08:42:58+00",30.2,38.2,,35.9,-658,1159,112,1008.26,35.4,0
"2018-03-03 08:47:58+00",25.2,35.2,,35.9,-394,1036,85,1008.46,35.4,0
"2018-03-03 08:52:58+00",26.9,33.9,,36,-545,1069,90,1008.4,35.5,0
"2018-03-03 08:57:58+00",30.5,37.5,,36.1,-485,1266,80,1008.58,35.5,0
"2018-03-03 09:02:58+00",30.6,36.6,,36.1,-584,1225,54,1008.63,35.6,0
"2018-03-03 09:07:58+00",29.2,34.2,,36.1,-526,1177,70,1008.5,35.5,0
"2018-03-03 09:12:58+00",32.7,35.7,,36.2,-741,1251,69,1008.4,35.6,0
"2018-03-03 09:17:58+00",25.8,28.8,,36,-567,991,67,1008.63,35.6,0
"2018-03-03 09:22:58+00",35.0,38.0,,36.2,-717,1368,73,1008.75,35.6,0
"2018-03-03 09:27:58+00",32.6,38.6,,36.1,-644,1300,99,1008.61,35.6,0
"2018-03-03 09:32:58+00",32.3,38.3,,36,-722,1240,89,1008.71,35.6,0
"2018-03-03 09:37:58+00",31.0,36.0,,36,-627,1228,60,1008.76,35.6,0
"2018-03-03 09:42:58+00",30.4,34.4,,36,-586,1207,90,1008.82,35.6,0
"2018-03-03 09:47:58+00",31.5,35.5,,36.1,-701,1215,77,1008.87,35.6,0
"2018-03-03 09:52:58+00",30.3,36.3,,36,-698,1143,74,1008.98,35.6,0
"2018-03-03 09:57:58+00",32.0,37.0,,36.1,-601,1279,45,1009.05,35.6,0
"2018-03-03 10:02:58+00",32.6,37.6,,36,-630,1301,96,1009.11,35.6,0
"2018-03-03 10:07:58+00",33.2,36.2,,36.1,-588,1345,63,1009.27,35.6,0
"2018-03-03 10:12:58+00",31.9,35.9,,36.1,-634,1251,100,1009.24,35.6,0
"2018-03-03 10:17:58+00",37.2,43.2,,36.2,-881,1402,103,1009.2,35.7,0
"2018-03-03 10:22:58+00",30.7,34.7,,36.1,-718,1173,60,1009.19,35.7,0
"2018-03-03 10:27:58+00",32.8,38.8,,36.1,-634,1309,42,1009.32,35.6,0
"2018-03-03 10:32:58+00",33.7,37.7,,36.2,-668,1349,77,1009.7,35.7,0
"2018-03-03 10:37:58+00",28.1,32.1,,36.2,-457,1139,74,1009.76,35.7,0
"2018-03-03 10:42:58+00",33.0,36.0,,36.2,-613,1325,62,1009.76,35.7,0
"2018-03-03 10:47:58+00",29.8,32.8,,36.2,-520,1219,56,1009.98,35.7,0
"2018-03-03 10:52:58+00",32.1,36.1,,36.2,-644,1279,75,1010.01,35.7,0
"2018-03-03 10:57:58+00",27.2,31.2,,36.2,-450,1123,60,1010.14,35.8,0
"2018-03-03 11:02:58+00",27.8,31.8,,36.2,-487,1139,70,1010.3,35.8,0
"2018-03-03 11:07:58+00",30.8,34.8,,36.3,-526,1249,47,1010.32,35.8,0
"2018-03-03 11:12:58+00",28.0,37.0,,36.2,-511,1128,55,1010.43,35.8,0
"2018-03-03 11:17:58+00",31.0,35.0,,36.4,-538,1257,68,1010.58,35.8,0
"2018-03-03 11:22:58+00",29.3,36.3,,36.4,-651,1140,74,1010.69,35.9,0
"2018-03-03 11:27:58+00",31.0,36.0,,36.4,-514,1268,50,1010.87,36,0
"2018-03-03 11:32:58+00",25.8,31.8,,36.4,-421,1057,57,1011.14,35.9,0
"2018-03-03 11:37:58+00",32.1,37.1,,36.5,-481,1339,57,1011.21,35.9,0
"2018-03-03 11:42:58+00",30.2,38.2,,36.5,-454,1260,68,1011.31,36,0
"2018-03-03 11:47:58+00",27.6,30.6,,36.5,-505,1114,56,1011.45,36,0
"2018-03-03 11:52:58+00",27.8,31.8,,36.5,-517,1110,41,1011.54,36,0
"2018-03-03 11:57:58+00",24.1,29.1,,36.4,-459,969,76,1011.6,36,0
"2018-03-03 12:02:58+00",28.3,33.3,,36.5,-424,1173,55,1011.68,36,0
"2018-03-03 12:07:58+00",25.2,28.2,,36.5,-412,1038,65,1011.76,36.1,0
"2018-03-03 12:12:58+00",26.6,30.6,,36.5,-462,1084,49,1011.76,36.2,0
"2018-03-03 12:17:58+00",27.8,34.8,,36.6,-498,1137,70,1011.78,36.2,0
"2018-03-03 12:22:58+00",28.2,31.2,,36.7,-432,1175,97,1011.87,36.4,0.6
"2018-03-03 12:27:58+00",32.7,37.7,,36.8,-700,1269,86,1011.79,36.5,7.5
"2018-03-03 12:32:58+00",23.6,27.6,,36.7,-436,959,66,1012.06,36.5,17.9
"2018-03-03 12:37:58+00",29.9,33.9,,36.8,-526,1219,42,1012.09,36.6,16.1
"2018-03-03 12:42:58+00",29.7,32.7,,36.9,-466,1230,53,1012.21,36.7,14.7
"2018-03-03 12:47:58+00",30.0,36.0,,37,-540,1208,68,1012.24,36.9,13.2
"2018-03-03 12:52:58+00",28.4,32.4,,37,-433,1189,79,1012.24,37,18.3
"2018-03-03 12:57:58+00",30.2,33.2,,37,-445,1255,38,1012.38,37,22.4
"2018-03-03 13:02:58+00",30.1,32.1,,37.1,-312,1283,31,1012.44,37.1,28.3
"2018-03-03 13:07:58+00",31.6,34.6,,37.3,-438,1316,87,1012.54,37.2,42.6
"2018-03-03 13:12:58+00",27.9,30.9,,37.3,-314,1198,56,1012.84,37.4,54.8
"2018-03-03 13:17:58+00",28.7,33.7,,37.2,-486,1173,70,1012.64,37.5,57.6
"2018-03-03 13:22:58+00",27.0,32.0,,37.3,-303,1151,50,1012.69,37.5,74.5
"2018-03-03 13:27:58+00",29.8,33.8,,37.4,-455,1239,75,1012.82,37.6,81.7
"2018-03-03 13:32:58+00",30.0,33.0,,37.4,-518,1227,80,1012.76,37.6,94.4
"2018-03-03 13:37:58+00",27.3,29.3,,37.5,-344,1153,75,1012.87,37.8,124.5
"2018-03-03 13:42:58+00",27.4,32.4,,37.8,-285,1180,36,1012.82,38.4,239.9
"2018-03-03 13:47:58+00",30.8,35.8,,38,-175,1335,58,1012.89,38.5,134.8
"2018-03-03 13:52:58+00",29.7,37.7,,38,-343,1254,70,1012.87,38.6,121.5
"2018-03-03 13:57:58+00",31.6,35.6,,38,-251,1360,66,1012.98,38.6,139.6
"2018-03-03 14:02:58+00",29.7,33.7,,38,-303,1276,57,1012.84,38.7,242.9
"2018-03-03 14:07:58+00",30.2,33.2,,38.3,-164,1312,49,1012.9,39.2,323.9
"2018-03-03 14:12:58+00",33.0,36.0,,38.3,-392,1401,67,1012.8,39.4,261.3
"2018-03-03 14:17:58+00",33.0,38.0,,38.4,-432,1392,79,1012.85,39.4,275.8
"2018-03-03 14:22:58+00",31.6,35.6,,38.7,-162,1377,54,1013.05,40,269.7
"2018-03-03 14:27:58+00",36.1,39.1,,39,-258,1562,22,1013.02,40.3,285.1
"2018-03-03 14:32:58+00",31.4,38.4,,39.2,-313,1356,72,1012.95,40.6,290.3
"2018-03-03 14:37:58+00",28.6,33.6,,39.3,-94,1256,45,1012.97,40.8,296.6
"2018-03-03 14:42:58+00",31.3,35.3,,39.4,-158,1370,55,1012.96,40.9,305.5
"2018-03-03 14:47:58+00",32.9,37.9,,39.5,-271,1418,53,1013.05,40.9,311.6
"2018-03-03 14:52:58+00",28.4,31.4,,39.6,-181,1237,60,1013.09,41.2,315.7
"2018-03-03 14:57:58+00",35.8,38.8,,39.7,-93,1567,47,1012.94,41.3,180.4
"2018-03-03 15:02:58+00",33.4,39.4,,39.8,-304,1438,50,1013.04,41.5,328.8
"2018-03-03 15:07:58+00",34.1,38.1,,40,-237,1470,37,1013.09,41.6,340
"2018-03-03 15:12:58+00",33.2,38.2,,40.2,-199,1444,59,1013.11,41.9,346.5
"2018-03-03 15:17:58+00",35.3,40.3,,40.2,-150,1545,48,1013.04,42.2,306.7
"2018-03-03 15:22:58+00",36.2,41.2,,40.4,-141,1576,48,1013.08,42.2,314.4
"2018-03-03 15:27:58+00",35.0,43.0,,40.6,-149,1517,56,1013.15,42.5,355
"2018-03-03 15:32:58+00",34.4,38.4,,40.7,2,1509,36,1013.2,42.5,353.5
"2018-03-03 15:37:58+00",31.7,35.7,,41,11,1393,46,1013.3,42.8,382.2
"2018-03-03 15:42:58+00",29.9,32.9,,41.1,-212,1316,37,1013.29,43.3,330.3
"2018-03-03 15:47:58+00",27.9,32.9,,41.2,-169,1219,78,1013.27,43.2,362.7
"2018-03-03 15:52:58+00",34.1,39.1,,41.3,-281,1477,61,1013.17,43,323.6
"2018-03-03 15:57:58+00",35.0,43.0,,41.5,-292,1503,56,1013.05,42.8,328
"2018-03-03 16:02:58+00",27.1,30.1,,41.7,-135,1190,61,1013.03,43.3,260.7
"2018-03-03 16:07:58+00",35.8,39.8,,41.8,-438,1521,56,1012.96,42.7,256
"2018-03-03 16:12:58+00",29.3,32.3,,41.8,-267,1263,68,1013.18,42.8,322.8
"2018-03-03 16:17:58+00",36.2,41.2,,41.8,-298,1575,81,1013.21,43,340.3
"2018-03-03 16:22:58+00",34.5,38.5,,41.8,-251,1501,37,1013.27,43.2,355
"2018-03-03 16:27:58+00",36.0,40.0,,42,-148,1581,47,1013.2,43.6,332
"2018-03-03 16:32:58+00",34.4,38.4,,41.9,-312,1486,66,1013.2,43.2,377.2
"2018-03-03 16:37:58+00",33.0,37.0,,42.1,-302,1424,48,1013.33,43.5,370
"2018-03-03 16:42:58+00",27.0,30.0,,42.2,-153,1183,44,1013.18,44.1,418.5
"2018-03-03 16:47:58+00",31.6,36.6,,42.2,-345,1346,59,1013.19,43.7,385
"2018-03-03 16:52:58+00",30.0,35.0,,42.4,-339,1281,59,1013.08,43.6,363.5
"2018-03-03 16:57:58+00",28.3,31.3,,42.5,-351,1198,71,1013.09,43.8,310.4
"2018-03-03 17:02:58+00",28.8,31.8,,42.6,-400,1203,50,1012.96,43.8,353.1
"2018-03-03 17:07:58+00",26.4,28.4,,42.8,-388,1103,63,1013.16,44.2,437.9
"2018-03-03 17:12:58+00",28.0,31.0,,42.7,-387,1173,75,1013.09,43.9,358.5
"2018-03-03 17:17:58+00",31.9,35.9,,42.8,-370,1366,56,1013.04,43.7,386.9
"2018-03-03 17:22:58+00",31.1,35.1,,43,-543,1262,80,1013.01,44.1,433.4
"2018-03-03 17:27:58+00",28.1,35.1,,43.3,-283,1207,69,1012.92,44.4,428.8
"2018-03-03 17:32:58+00",32.9,39.9,,43.5,-301,1417,60,1012.74,44.6,338.5
"2018-03-03 17:37:58+00",25.6,28.6,,43.7,-318,1089,64,1012.76,44.5,284.3
"2018-03-03 17:42:58+00",31.2,35.2,,44.1,-125,1356,45,1012.72,44.7,199.3
"2018-03-03 17:47:58+00",26.9,29.9,,44.1,-576,1054,70,1012.57,44.6,200.8
"2018-03-03 17:52:58+00",26.4,31.4,,44.2,-315,1129,72,1012.74,44.6,211.8
"2018-03-03 17:57:58+00",29.7,34.7,,44.3,-189,1296,35,1012.7,44.8,209.7
"2018-03-03 18:02:58+00",26.6,30.6,,44.6,-360,1118,61,1012.78,45,196.4
"2018-03-03 18:07:58+00",29.3,34.3,,44.4,-441,1225,74,1012.79,45,176.6
"2018-03-03 18:12:58+00",28.8,31.8,,44.2,-507,1175,77,1012.87,44.6,170.2
"2018-03-03 18:17:58+00",24.5,27.5,,44.3,-323,1032,54,1012.95,44.7,175.9
"2018-03-03 18:22:58+00",29.0,32.0,,44,-468,1194,60,1012.87,44.5,168.6
"2018-03-03 18:27:58+00",26.7,30.7,,44.4,-391,1107,75,1012.95,44.6,186.8
"2018-03-03 18:32:58+00",29.1,32.1,,44.4,-541,1181,60,1012.99,44.7,163.3
"2018-03-03 18:37:58+00",24.7,27.7,,44.6,-249,1072,44,1013.03,44.8,170.3
"2018-03-03 18:42:58+00",30.5,35.5,,44.8,-386,1295,46,1012.94,45.1,181.3
"2018-03-03 18:47:58+00",26.5,30.5,,45.1,-261,1139,42,1013.06,45.4,168
"2018-03-03 18:52:58+00",25.4,29.4,,45.3,-211,1106,48,1013.11,45.7,167.9
"2018-03-03 18:57:58+00",32.6,35.6,,45.3,-299,1402,46,1013.17,46,207.1
"2018-03-03 19:02:58+00",26.0,31.0,,45.2,-289,1120,54,1013.24,45.8,215
"2018-03-03 19:07:58+00",28.2,31.2,,45.3,-346,1207,46,1013.26,46.1,215.4
"2018-03-03 19:12:58+00",23.6,25.6,,45.6,-105,1050,24,1013.23,46.4,197.2
"2018-03-03 19:17:58+00",22.5,26.5,,45.8,-182,972,32,1013.3,46.8,193.2
"2018-03-03 19:22:58+00",23.5,25.5,,46,-321,988,39,1013.28,46.9,223.6
"2018-03-03 19:27:58+00",24.8,27.8,,45.9,-114,1090,31,1013.42,47.2,216.1
"2018-03-03 19:32:58+00",24.6,27.6,,46.1,-52,1084,31,1013.37,47.3,167.9
"2018-03-03 19:37:58+00",23.8,27.8,,46.1,-288,1021,28,1013.42,47.3,112.5
"2018-03-03 19:42:58+00",26.6,29.6,,45.7,-370,1114,34,1013.47,46.6,144.4
"2018-03-03 19:47:58+00",21.7,25.7,,45.6,-370,877,80,1013.51,46.3,129.2
"2018-03-03 19:52:58+00",28.4,31.4,,45.6,-437,1186,42,1013.59,45.9,124
"2018-03-03 19:57:58+00",26.1,31.1,,45.8,-454,1063,48,1013.59,45.8,91.4
"2018-03-03 20:02:58+00",29.1,33.1,,45.9,-264,1251,56,1013.66,45.9,82.9
"2018-03-03 20:07:58+00",23.5,27.5,,45.7,-124,1036,49,1013.8,45.8,70.1
"2018-03-03 20:12:58+00",21.3,25.3,,45.5,-314,888,63,1014.02,45.7,80
"2018-03-03 20:17:58+00",20.1,22.1,,45.7,-216,849,33,1013.91,45.8,69.7
"2018-03-03 20:22:58+00",21.1,24.1,,45.5,-225,910,53,1014.07,45.8,68.3
"2018-03-03 20:27:58+00",27.6,31.6,,45.6,-313,1176,53,1014.19,45.7,61.4
"2018-03-03 20:32:58+00",30.0,35.0,,45.3,-236,1299,23,1014.28,45.5,54.4
"2018-03-03 20:37:58+00",25.2,33.2,,45.1,-212,1091,55,1014.29,45.2,46
"2018-03-03 20:42:58+00",22.1,24.1,,45,-21,990,43,1014.45,45.1,40.9
"2018-03-03 20:47:58+00",22.8,25.8,,45,-123,1006,46,1014.41,45,38.4
"2018-03-03 20:52:58+00",25.1,29.1,,45.2,-229,1090,48,1014.55,45,35.3
"2018-03-03 20:57:58+00",24.2,27.2,,45,-12,1077,36,1014.56,44.9,33
"2018-03-03 21:02:58+00",28.8,32.8,,44.9,-70,1259,35,1014.65,44.8,29.6
"2018-03-03 21:07:58+00",26.5,30.5,,44.8,-156,1169,40,1014.74,44.6,25.7
"2018-03-03 21:12:58+00",30.9,36.9,,44.6,-225,1340,46,1014.77,44.4,23.3
"2018-03-03 21:17:58+00",25.0,30.0,,44.5,-261,1061,38,1014.83,44.2,18.4
"2018-03-03 21:22:58+00",30.8,34.8,,44.5,-136,1339,29,1014.83,44.1,12
"2018-03-03 21:27:58+00",23.8,28.8,,44.1,-147,1051,33,1014.98,43.9,9.3
"2018-03-03 21:32:58+00",22.7,25.7,,44,-50,995,52,1015.07,43.8,6.4
"2018-03-03 21:37:58+00",20.9,24.9,,44,-163,904,40,1015.04,43.6,2.7
"2018-03-03 21:42:58+00",19.7,23.7,,43.8,-92,862,34,1015.2,43.5,1
"2018-03-03 21:47:58+00",23.1,25.1,,43.8,-59,1010,12,1015.22,43.3,0.2
"2018-03-03 21:52:58+00",17.3,20.3,,43.6,-10,757,16,1015.34,43.2,0
"2018-03-03 21:57:58+00",20.8,24.8,,43.6,-54,911,26,1015.4,43,0.1
"2018-03-03 22:02:58+00",21.6,24.6,,43.7,-102,951,18,1015.56,43,0
"2018-03-03 22:07:58+00",20.2,24.2,,43.4,-162,869,29,1015.6,42.8,0
"2018-03-03 22:12:58+00",19.9,22.9,,43.6,-170,858,22,1015.7,42.8,0
"2018-03-03 22:17:58+00",28.3,32.3,,43.7,-378,1204,43,1015.72,42.9,0
"2018-03-03 22:22:58+00",23.5,25.5,,43.3,-298,997,47,1015.79,42.8,0
"2018-03-03 22:27:58+00",28.7,32.7,,43,-287,1234,36,1015.91,42.6,0
"2018-03-03 22:32:58+00",28.2,31.2,,43,-336,1196,60,1016.1,42.4,0
"2018-03-03 22:37:58+00",24.6,28.6,,42.7,-251,1049,40,1016.07,42.3,0
"2018-03-03 22:42:58+00",29.9,33.9,,42.7,-359,1277,62,1016.11,42.1,0
"2018-03-03 22:47:58+00",25.8,29.8,,42.4,-303,1104,33,1016.22,42,0
"2018-03-03 22:52:58+00",27.2,31.2,,42.3,-241,1178,59,1016.19,41.9,0
"2018-03-03 22:57:58+00",23.1,26.1,,42.1,-204,995,31,1016.22,41.6,0
"2018-03-03 23:02:58+00",28.5,32.5,,42.1,-275,1232,47,1016.39,41.5,0
"2018-03-03 23:07:58+00",26.8,32.8,,42,-171,1178,19,1016.45,41.5,0
"2018-03-03 23:12:58+00",27.8,32.8,,42,-279,1191,39,1016.62,41.4,0
"2018-03-03 23:17:58+00",27.1,32.1,,41.9,-162,1180,30,1016.57,41.3,0
"2018-03-03 23:22:58+00",27.6,30.6,,42,-336,1175,37,1016.58,41.4,0
"2018-03-03 23:27:58+00",23.9,26.9,,41.9,-293,1024,29,1016.81,41.4,0
"2018-03-03 23:32:58+00",22.6,25.6,,41.8,-327,954,57,1016.88,41.4,0
"2018-03-03 23:37:58+00",27.3,32.3,,41.9,-336,1146,72,1016.93,41.4,0
"2018-03-03 23:42:58+00",21.6,23.6,,41.8,-284,905,67,1016.97,41.3,0
"2018-03-03 23:47:58+00",26.3,30.3,,41.8,-274,1143,36,1016.95,41.3,0
"2018-03-03 23:52:58+00",23.6,27.6,,41.8,-397,967,62,1017.16,41.4,0
"2018-03-03 23:57:58+00",20.9,23.9,,41.8,-272,877,49,1017.18,41.4,0
